Hourly Data Report for July 24, 2011

HALIFAX STANFIELD INT'L A
NOVA SCOTIA

44°52'48.060" N
63°30'00.050" W
145.40 m
8202250
71395
YHZ

Download Data

Hourly Data (July 2011)
Hourly Data Report for July 24, 2011
TIME
LST
Temp Definition
°C
Dew Point Definition
°C
Rel Hum Definition
%
Precip. Amount Definition
mm

Wind Dir Definition
10's deg

Wind Spd Definition
km/h
Visibility Definition
km
Stn Press Definition
kPa
Hmdx Definition


Wind Chill Definition


Weather Definition


00:00 18.3 16.5 89   29 6 9.7 98.90     Fog
01:00 18.2 15.9 86   28 15 24.1 98.88     Clear
02:00 17.8 14.4 80   30 19 24.1 98.87     Clear
03:00 17.1 13.6 80   30 15 24.1 98.87     Clear
04:00 17.2 13.7 80   29 15 24.1 98.90     Clear
05:00 16.4 13.3 82   28 15 24.1 98.96     Mainly Clear
06:00 17.6 13.6 77   29 15 24.1 99.03     Mainly Clear
07:00 19.0 13.8 72   30 19 24.1 99.09     Mainly Clear
08:00 19.5 14.3 72   29 17 24.1 99.16     Mostly Cloudy
09:00 20.2 14.6 70   32 22 24.1 99.19     Mostly Cloudy
10:00 21.1 14.4 66   33 26 24.1 99.20 25   Mostly Cloudy
11:00 21.2 14.2 64   30 20 24.1 99.24 25   Mostly Cloudy
12:00 22.6 14.3 59   34 24 24.1 99.27 26   Mostly Cloudy
13:00 21.2 14.8 67   34 28 24.1 99.31 25   Mostly Cloudy
14:00 21.4 14.6 65   34 15 24.1 99.34 25   Mostly Cloudy
15:00 20.0 13.5 66   36 24 24.1 99.41     Mostly Cloudy
16:00 19.8 12.7 64   35 20 24.1 99.45     Mostly Cloudy
17:00 20.2 12.1 60   2 26 24.1 99.49     Mainly Clear
18:00 19.8 12.0 61   1 15 24.1 99.54     Mainly Clear
19:00 18.1 11.3 64   1 15 24.1 99.59     Clear
20:00 16.0 10.6 70   1 7 24.1 99.66     Clear
21:00 14.9 10.4 74   5 6 24.1 99.74     Clear
22:00 14.2 10.1 76   6 7 24.1 99.78     Clear
23:00 14.0 9.7 75   7 6 24.1 99.81     Clear

Notes on Data Quality.

Legend

  • E = Estimated
  • M = Missing
  • NA = Not Available*
  • [empty] = Indicates an unobserved value
Date modified: